Radiation Dose at Monitoring Post of Fukushima Daini Nuclear Power Station
Date,Time,MP-1(microSv/h),MP-2(microSv/h),MP-3(microSv/h),MP-4(microSv/h),MP-5(microSv/h),MP-6(microSv/h),MP-7(microSv/h),Wind Direction,Wind Velocity(m/s),Rain
2015/07/17,00:00,0.477,0.282,0.494,0.459,0.450,0.223,0.195,south-southwest,10.9,No
2015/07/17,00:10,0.483,0.280,0.498,0.454,0.447,0.224,0.194,south-southwest,9.5,No
2015/07/17,00:20,0.486,0.278,0.502,0.454,0.451,0.226,0.194,south-southwest,8.6,No
2015/07/17,00:30,0.483,0.281,0.497,0.459,0.455,0.223,0.194,south-southwest,10.7,No
2015/07/17,00:40,0.478,0.282,0.494,0.457,0.449,0.224,0.195,south-southwest,10.4,No
2015/07/17,00:50,0.488,0.280,0.501,0.452,0.446,0.224,0.194,south-southwest,10.8,No
2015/07/17,01:00,0.485,0.279,0.502,0.457,0.455,0.225,0.195,south-southwest,10.5,No
2015/07/17,01:10,0.481,0.283,0.497,0.461,0.451,0.223,0.196,south-southwest,10.9,No
2015/07/17,01:20,0.480,0.280,0.497,0.457,0.449,0.224,0.194,south-southwest,10.8,No
2015/07/17,01:30,0.488,0.279,0.504,0.452,0.449,0.226,0.194,south-southwest,13.6,Yes
2015/07/17,01:40,0.485,0.279,0.500,0.459,0.456,0.225,0.195,south-southwest,10.7,No
2015/07/17,01:50,0.481,0.282,0.495,0.461,0.453,0.224,0.194,south-southwest,11.8,No
2015/07/17,02:00,0.481,0.280,0.500,0.456,0.446,0.225,0.194,south-southwest,10.8,No
2015/07/17,02:10,0.487,0.280,0.503,0.454,0.449,0.226,0.196,south-southwest,10.1,No
2015/07/17,02:20,0.483,0.282,0.499,0.461,0.453,0.226,0.195,south-southwest,11.1,No
2015/07/17,02:30,0.481,0.283,0.495,0.461,0.450,0.224,0.195,south,9.3,No
2015/07/17,02:40,0.483,0.279,0.504,0.455,0.446,0.225,0.193,south-southwest,11.5,No
2015/07/17,02:50,0.489,0.280,0.502,0.455,0.453,0.226,0.197,south-southwest,13.1,No
2015/07/17,03:00,0.485,0.283,0.497,0.463,0.453,0.226,0.195,south-southwest,10.9,Yes
2015/07/17,03:10,0.481,0.283,0.498,0.458,0.449,0.225,0.194,south-southwest,11.4,Yes
2015/07/17,03:20,0.485,0.281,0.503,0.455,0.448,0.225,0.195,south-southwest,8.9,No
2015/07/17,03:30,0.488,0.281,0.502,0.458,0.455,0.226,0.196,south-southwest,8.4,No
2015/07/17,03:40,0.483,0.283,0.499,0.462,0.452,0.226,0.195,south-southwest,7.1,No
2015/07/17,03:50,0.480,0.281,0.500,0.459,0.448,0.226,0.195,south-southwest,6.9,No
2015/07/17,04:00,0.486,0.279,0.504,0.456,0.451,0.226,0.197,south-southwest,7.4,No
2015/07/17,04:10,0.488,0.283,0.500,0.459,0.455,0.226,0.195,south,7.5,No
2015/07/17,04:20,0.484,0.283,0.497,0.463,0.450,0.226,0.195,south,8.1,No
2015/07/17,04:30,0.485,0.281,0.507,0.457,0.450,0.226,0.196,south,8.5,No
2015/07/17,04:40,0.489,0.283,0.504,0.457,0.456,0.226,0.195,south,9.0,No
2015/07/17,04:50,0.485,0.283,0.499,0.463,0.452,0.224,0.195,south-southwest,10.1,No
2015/07/17,05:00,0.483,0.281,0.502,0.460,0.448,0.225,0.196,south-southwest,11.0,No
2015/07/17,05:10,0.490,0.282,0.506,0.455,0.455,0.227,0.196,south,10.0,No
2015/07/17,05:20,0.486,0.283,0.501,0.462,0.454,0.226,0.196,south-southwest,10.5,No
2015/07/17,05:30,0.482,0.281,0.496,0.461,0.449,0.225,0.197,south-southwest,9.8,No
2015/07/17,05:40,0.489,0.282,0.506,0.456,0.452,0.226,0.195,south,9.2,No
2015/07/17,05:50,0.487,0.284,0.503,0.459,0.454,0.225,0.196,south,8.8,No
2015/07/17,06:00,0.482,0.281,0.497,0.463,0.449,0.226,0.197,south,8.9,No
2015/07/17,06:10,0.490,0.281,0.503,0.458,0.450,0.227,0.195,south,8.6,No
2015/07/17,06:20,0.487,0.283,0.505,0.456,0.454,0.226,0.196,south,8.2,No
2015/07/17,06:30,0.482,0.283,0.499,0.464,0.453,0.226,0.196,south,8.4,No
2015/07/17,06:40,0.486,0.281,0.499,0.460,0.448,0.226,0.196,south,8.1,No
2015/07/17,06:50,0.487,0.283,0.505,0.454,0.455,0.226,0.197,south,8.1,No
2015/07/17,07:00,0.482,0.282,0.502,0.462,0.453,0.225,0.195,south-southwest,8.6,No
2015/07/17,07:10,0.486,0.280,0.498,0.462,0.450,0.227,0.194,south,9.3,No
2015/07/17,07:20,0.490,0.283,0.504,0.457,0.448,0.227,0.198,south,8.8,No
2015/07/17,07:30,0.485,0.285,0.505,0.458,0.456,0.226,0.196,south-southwest,8.8,No
2015/07/17,07:40,0.483,0.281,0.500,0.463,0.452,0.227,0.196,south,8.7,No
2015/07/17,07:50,0.489,0.281,0.499,0.460,0.451,0.226,0.196,south,8.9,No
2015/07/17,08:00,0.488,0.284,0.503,0.457,0.448,0.227,0.196,south-southwest,9.8,No
2015/07/17,08:10,0.482,0.284,0.505,0.454,0.454,0.226,0.195,south,10.0,No
2015/07/17,08:20,0.480,0.284,0.503,0.454,0.457,0.226,0.196,south-southwest,10.7,No
2015/07/17,08:30,0.480,0.282,0.500,0.455,0.454,0.226,0.196,south,10.6,No
2015/07/17,08:40,0.490,0.282,0.498,0.454,0.451,0.226,0.195,south,10.1,No
2015/07/17,08:50,0.490,0.282,0.498,0.457,0.452,0.227,0.196,south,11.0,Yes
2015/07/17,09:00,0.487,0.281,0.498,0.458,0.451,0.226,0.194,south-southwest,10.4,No
2015/07/17,09:10,0.485,0.281,0.504,0.460,0.449,0.226,0.195,south,8.9,No
2015/07/17,09:20,0.485,0.282,0.507,0.460,0.450,0.228,0.195,south,8.6,No
2015/07/17,09:30,0.482,0.283,0.504,0.461,0.450,0.227,0.196,south,10.2,Yes
2015/07/17,09:40,0.484,0.282,0.503,0.461,0.451,0.229,0.195,south,11.1,No
2015/07/17,09:50,0.484,0.281,0.501,0.462,0.449,0.229,0.198,south,11.8,Yes
2015/07/17,10:00,0.491,0.281,0.500,0.464,0.452,0.228,0.198,south,11.3,No
2015/07/17,10:10,0.489,0.280,0.499,0.464,0.454,0.229,0.196,south,10.5,No
2015/07/17,10:20,0.486,0.282,0.505,0.462,0.459,0.228,0.196,south,9.8,No
2015/07/17,10:30,0.485,0.281,0.508,0.460,0.455,0.226,0.195,south,6.7,No
2015/07/17,10:40,0.484,0.282,0.506,0.459,0.455,0.228,0.197,south,10.1,Yes
2015/07/17,10:50,0.492,0.281,0.501,0.458,0.453,0.229,0.197,south,8.9,Yes
2015/07/17,11:00,0.491,0.281,0.502,0.458,0.453,0.229,0.197,south-southeast,7.3,Yes
2015/07/17,11:10,0.486,0.283,0.502,0.458,0.450,0.227,0.195,south-southeast,6.7,Yes
2015/07/17,11:20,0.485,0.286,0.501,0.464,0.452,0.226,0.197,south-southeast,5.9,Yes
2015/07/17,11:30,0.490,0.285,0.509,0.467,0.458,0.228,0.198,south-southeast,5.6,Yes
2015/07/17,11:40,0.490,0.283,0.508,0.463,0.458,0.229,0.196,south-southeast,5.3,Yes
2015/07/17,11:50,0.486,0.286,0.502,0.460,0.453,0.227,0.197,southeast,5.6,Yes
2015/07/17,12:00,0.491,0.285,0.505,0.466,0.451,0.227,0.196,south-southeast,5.6,Yes
2015/07/17,12:10,0.492,0.282,0.507,0.465,0.460,0.227,0.196,southeast,5.7,Yes
2015/07/17,12:20,0.488,0.282,0.503,0.458,0.454,0.226,0.196,southeast,5.9,Yes
2015/07/17,12:30,0.485,0.283,0.498,0.459,0.448,0.227,0.197,east-southeast,6.0,Yes
2015/07/17,12:40,0.490,0.284,0.506,0.463,0.451,0.227,0.195,southeast,6.5,Yes
2015/07/17,12:50,0.486,0.281,0.502,0.456,0.455,0.225,0.195,southeast,7.5,Yes
2015/07/17,13:00,0.480,0.283,0.496,0.454,0.451,0.225,0.197,east-southeast,8.0,Yes
2015/07/17,13:10,0.490,0.283,0.502,0.461,0.448,0.226,0.196,east-southeast,10.1,Yes
2015/07/17,13:20,0.487,0.280,0.501,0.459,0.455,0.226,0.194,east-southeast,9.4,No
2015/07/17,13:30,0.481,0.283,0.496,0.455,0.453,0.225,0.195,east-southeast,9.1,Yes
2015/07/17,13:40,0.486,0.284,0.500,0.460,0.448,0.226,0.195,east-southeast,9.2,Yes
2015/07/17,13:50,0.486,0.280,0.501,0.459,0.453,0.225,0.194,east-southeast,7.2,Yes
2015/07/17,14:00,0.481,0.282,0.498,0.452,0.453,0.225,0.196,east-southeast,5.3,Yes
2015/07/17,14:10,0.485,0.283,0.499,0.457,0.447,0.225,0.194,south-southeast,3.0,Yes
2015/07/17,14:20,0.488,0.280,0.501,0.460,0.453,0.226,0.195,west-southwest,2.8,Yes
2015/07/17,14:30,0.484,0.283,0.498,0.455,0.454,0.225,0.196,west-southwest,3.9,No
2015/07/17,14:40,0.482,0.284,0.494,0.453,0.450,0.225,0.195,west-southwest,4.4,Yes
2015/07/17,14:50,0.489,0.281,0.503,0.460,0.446,0.227,0.192,south-southwest,6.9,Yes
2015/07/17,15:00,0.484,0.280,0.501,0.457,0.450,0.226,0.194,southwest,5.4,Yes
2015/07/17,15:10,0.481,0.280,0.497,0.454,0.454,0.225,0.195,south-southwest,5.2,No
2015/07/17,15:20,0.479,0.282,0.494,0.453,0.450,0.225,0.195,south,10.4,No
2015/07/17,15:30,0.487,0.284,0.502,0.459,0.448,0.225,0.194,south,13.2,Yes
2015/07/17,15:40,0.486,0.284,0.503,0.462,0.447,0.227,0.195,south,12.9,Yes
2015/07/17,15:50,0.481,0.280,0.497,0.457,0.455,0.226,0.196,south-southwest,10.7,No
2015/07/17,16:00,0.485,0.283,0.497,0.455,0.452,0.226,0.194,south,8.4,No
2015/07/17,16:10,0.487,0.285,0.502,0.460,0.449,0.228,0.194,south,11.5,No
2015/07/17,16:20,0.484,0.283,0.502,0.459,0.452,0.227,0.196,south,11.8,No
2015/07/17,16:30,0.483,0.280,0.497,0.455,0.454,0.226,0.195,south,9.8,No
2015/07/17,16:40,0.490,0.284,0.502,0.459,0.452,0.226,0.194,south,9.1,No
2015/07/17,16:50,0.488,0.285,0.503,0.459,0.447,0.226,0.196,south,8.2,No
2015/07/17,17:00,0.482,0.281,0.500,0.457,0.456,0.226,0.196,south,8.6,No
2015/07/17,17:10,0.488,0.283,0.499,0.457,0.455,0.226,0.193,south,8.1,No
2015/07/17,17:20,0.490,0.285,0.506,0.463,0.450,0.227,0.197,south,7.9,No
2015/07/17,17:30,0.484,0.283,0.502,0.458,0.453,0.227,0.195,south,7.8,No
2015/07/17,17:40,0.483,0.282,0.499,0.454,0.457,0.226,0.195,south,7.8,No
2015/07/17,17:50,0.489,0.284,0.503,0.463,0.451,0.227,0.197,south,8.3,No
2015/07/17,18:00,0.487,0.284,0.504,0.461,0.451,0.227,0.196,south,7.9,No
2015/07/17,18:10,0.482,0.282,0.499,0.457,0.455,0.226,0.195,south-southwest,7.9,No
2015/07/17,18:20,0.487,0.282,0.499,0.458,0.454,0.227,0.195,south,7.6,No
2015/07/17,18:30,0.489,0.283,0.506,0.462,0.450,0.228,0.196,south-southwest,8.5,No
2015/07/17,18:40,0.485,0.284,0.501,0.459,0.451,0.228,0.196,south-southwest,10.3,No
2015/07/17,18:50,0.483,0.282,0.499,0.453,0.455,0.226,0.195,south-southwest,10.1,No
2015/07/17,19:00,0.491,0.283,0.505,0.462,0.452,0.227,0.196,south-southwest,9.8,No
2015/07/17,19:10,0.488,0.286,0.505,0.463,0.449,0.227,0.196,south-southwest,8.9,No
2015/07/17,19:20,0.485,0.283,0.498,0.457,0.456,0.227,0.194,south-southwest,8.8,No
2015/07/17,19:30,0.487,0.283,0.502,0.461,0.453,0.227,0.197,south-southwest,8.7,No
2015/07/17,19:40,0.487,0.285,0.506,0.463,0.449,0.226,0.196,south-southwest,9.8,No
2015/07/17,19:50,0.484,0.283,0.502,0.460,0.457,0.228,0.196,south-southwest,10.1,No
2015/07/17,20:00,0.486,0.281,0.501,0.458,0.455,0.227,0.196,south-southwest,10.2,No
2015/07/17,20:10,0.492,0.284,0.504,0.464,0.449,0.226,0.196,south-southwest,9.5,No
2015/07/17,20:20,0.487,0.282,0.503,0.461,0.456,0.227,0.196,south-southwest,9.1,No
2015/07/17,20:30,0.485,0.284,0.499,0.456,0.455,0.227,0.198,south-southwest,9.5,No
2015/07/17,20:40,0.491,0.285,0.505,0.462,0.450,0.228,0.196,south-southwest,9.4,No
2015/07/17,20:50,0.488,0.283,0.502,0.462,0.455,0.227,0.196,south-southwest,8.4,No
2015/07/17,21:00,0.483,0.284,0.500,0.456,0.456,0.228,0.197,south-southwest,8.2,No
2015/07/17,21:10,0.489,0.285,0.505,0.462,0.449,0.229,0.196,south,7.1,No
2015/07/17,21:20,0.488,0.283,0.504,0.460,0.455,0.228,0.197,south,6.6,No
2015/07/17,21:30,0.485,0.284,0.500,0.457,0.454,0.227,0.197,south,6.2,No
2015/07/17,21:40,0.491,0.284,0.506,0.463,0.450,0.228,0.195,south,5.8,No
2015/07/17,21:50,0.488,0.283,0.504,0.463,0.456,0.226,0.197,south,5.0,No
2015/07/17,22:00,0.483,0.284,0.501,0.458,0.456,0.227,0.197,south,5.7,No
2015/07/17,22:10,0.492,0.284,0.506,0.461,0.450,0.228,0.196,south,6.3,No
2015/07/17,22:20,0.488,0.284,0.506,0.464,0.456,0.226,0.198,south,7.2,No
2015/07/17,22:30,0.483,0.284,0.499,0.458,0.455,0.230,0.196,south,7.8,No
2015/07/17,22:40,0.492,0.285,0.503,0.463,0.451,0.228,0.197,south-southwest,7.5,No
2015/07/17,22:50,0.487,0.283,0.505,0.463,0.457,0.227,0.197,south-southwest,7.1,No
2015/07/17,23:00,0.484,0.286,0.500,0.457,0.455,0.228,0.195,south-southwest,8.1,No
2015/07/17,23:10,0.488,0.284,0.505,0.462,0.449,0.227,0.198,south-southwest,8.5,Yes
2015/07/17,23:20,0.488,0.283,0.507,0.462,0.457,0.227,0.196,south-southwest,9.0,No
2015/07/17,23:30,0.485,0.286,0.499,0.457,0.452,0.229,0.195,south-southwest,8.6,No
2015/07/17,23:40,0.489,0.284,0.505,0.461,0.450,0.227,0.198,south,8.2,No
2015/07/17,23:50,0.485,0.284,0.505,0.463,0.456,0.228,0.196,south-southwest,9.5,No
